DMSP 5D-2 F14 DEB

Satellite information

Favourite Embed

Satellite Type and Status

DEBRISIN ORBIT

Key statistics

Satellite DMSP 5D-2 F14 DEB at a glance.

Uptime

10481

Days in orbit

Revolutions

≈ 15.2

Per day

Orbit

SSO

Sun Synchronous Orbit

Inclination

99.5

Latest

Satellite identification and parameters

Extended collection of information and parameters for DMSP 5D-2 F14 DEB.

Object identification

Identified? True

Debris? True

Object name: DMSP 5D-2 F14 DEB

International designator: 1997-012T

Object number (NORAD): 62947

Object ID (CCSDS): 62947

Country: UNITED STATES OF AMERICA (US)

Current information (Y/N): Y

RCS size: SMALL

Orbital parameters

Period: 94.575 minutes

Inclination: 99.4705 deg

SMA: 6876.135 km

Apoapsis: 513.297 km

Periapsis: 482.703 km

RAAN: 57.7418 deg

Eccentricy: 0.00222466

Argument of periapsis: 286.0635 deg

Mean anomaly: 73.8145 deg

Mean motion: 15.22601307 rev/day

Mean motion (dot): 0.04862707 rev/day2

B* drag term: 0.18313711 1/REarth

Two-line elements (TLE)

Creation date: Dec. 12, 2025, 3:16 a.m.

Reference frame: TEME

Reference center: EARTH

Epoch: Dec. 11, 2025, 8:15 p.m. UTC

TLE line 0: 0 DMSP 5D-2 F14 DEB

TLE line 1: 1 62947U 97012T 25345.84398665 .04862707 00000-0 18314+0 0 9995

TLE line 2: 2 62947 99.4705 57.7418 0022247 286.0635 73.8145 15.22601307482136

Live tracking on map

Real-time ground track for satellite DMSP 5D-2 F14 DEB.

In-orbit conjunctions

A list of the most updated potential collisions computed for object DMSP 5D-2 F14 DEB.

Target Orbit TCA Probability of collision Miss distance Type
SL-8 R/B LEO 2025-10-12 21:48:31 0.0003511293 96.0 (m) ROCKET BODY
COSMOS 2112 LEO 2025-08-27 16:32:57 0.0001453157 401.0 (m) PAYLOAD
SCOUT X-4 DEB LEO 2025-03-01 09:24:12 0.0001755319 192.0 (m) DEBRIS

Associated space launch

Military meteorological satellite

DMSP 5D-2 F14 DEB was lifted into orbit during the mission ‘Titan II SLV | DMSP-5D2 F14’, on board a Titan II SLV space rocket.

The launch took place on April 4, 1997, 4:47 p.m. from Space Launch Complex 4W.

For more information about the launch, click the button.

Launch to space Titan II SLV | DMSP-5D2 F14
Titan II SLV | DMSP-5D2 F14

Agency: N/A

Status: Launch Successful

Launch date: April 4, 1997, 4:47 p.m. UTC

Rocket: Titan II SLV

Launch pad: Space Launch Complex 4W

Location: Vandenberg SFB, CA, USA

...

Latest news about this satellite

News about space launch
Retired military weather satellite breaks up

A defunct military weather satellite has broken up in orbit and created more than 50 pieces of debris, the latest in a series of similar incidents. The post Retired military weather satellite breaks up appeared first on SpaceNews.


Newsletter sign-up

Weekly statistics, charts and insights to help you stay on top of the space industry.